This is the latest recevied weather packets stored in our database for station/object K1WJY. If no packets are shown the sender has not sent any weather packets the latest 10 day(s).
| Time | Temp. | Humidity | Pressure | Rain* | Wind** | Luminosity | Snow |
|---|---|---|---|---|---|---|---|
| 1777946086 | 8.89° C | 86% | 1010.5 hPa | 0 mm | - | 0 W/m² | - |
| 1777945783 | 8.89° C | 85% | 1010.6 hPa | 0 mm | - | 0 W/m² | - |
| 1777945480 | 8.89° C | 86% | 1010.7 hPa | 0 mm | - | 0 W/m² | - |
| 1777945177 | 8.89° C | 87% | 1010.5 hPa | 0 mm | - | 0 W/m² | - |
| 1777944874 | 9.44° C | 85% | 1010.4 hPa | 0 mm | - | 0 W/m² | - |
| 1777944571 | 9.44° C | 85% | 1010.4 hPa | 0 mm | - | 0 W/m² | - |
| 1777944269 | 9.44° C | 84% | 1010.5 hPa | 0 mm | - | 0 W/m² | - |
| 1777943966 | 9.44° C | 83% | 1010.3 hPa | 0 mm | - | 0 W/m² | - |
| 1777943662 | 10° C | 83% | 1010.3 hPa | 0 mm | - | 0 W/m² | - |
| 1777943359 | 10° C | 82% | 1010.2 hPa | 0 mm | - | 0 W/m² | - |
| 1777943055 | 10° C | 82% | 1010.1 hPa | 0 mm | - | 0 W/m² | - |
| 1777942750 | 10° C | 82% | 1010.2 hPa | 0 mm | - | 0 W/m² | - |
| 1777942448 | 10° C | 81% | 1010.1 hPa | 0 mm | - | 0 W/m² | - |
| 1777942145 | 10° C | 81% | 1010 hPa | 0 mm | - | 0 W/m² | - |
| 1777941841 | 10.56° C | 81% | 1009.9 hPa | 0 mm | - | 0 W/m² | - |
| 1777941539 | 10.56° C | 81% | 1010 hPa | 0 mm | - | 0 W/m² | - |
| 1777941236 | 10.56° C | 81% | 1009.9 hPa | 0 mm | - | 0 W/m² | - |
| 1777940932 | 10.56° C | 84% | 1009.7 hPa | 0 mm | - | 0 W/m² | - |
| 1777940628 | 11.11° C | 82% | 1009.6 hPa | 0 mm | - | 0 W/m² | - |
| 1777940327 | 11.11° C | 81% | 1009.7 hPa | 0 mm | - | 0 W/m² | - |
| 1777940024 | 11.11° C | 82% | 1009.5 hPa | 0 mm | - | 0 W/m² | - |
| 1777939721 | 11.11° C | 84% | 1009.5 hPa | 0 mm | - | 0 W/m² | - |
| 1777939419 | 11.11° C | 87% | 1009.1 hPa | 0 mm | - | 0 W/m² | - |
| 1777939115 | 11.11° C | 83% | 1009.2 hPa | 0 mm | - | 0 W/m² | - |
| 1777938812 | 11.11° C | 83% | 1008.9 hPa | 0 mm | - | 0 W/m² | - |
* Rain latest hour (hover to see other rain measurements)
** Current wind speed in m/s (hover to see current wind gust speed)